Des Moines, IA

6:45 PM CDT on July 24, 2017 (GMT -0500)
Des Moines International

Weather History for KDSM - September, 2013

Change the Weather History Date:

Sunday, September 1, 2013

  Actual Average Record
Temperature  
Mean Temperature 76 °F 71 °F  
Max Temperature 86 °F 81 °F 99 °F (1913)
Min Temperature 66 °F 61 °F 38 °F (1949)
Degree Days  
Heating Degree Days 0 1  
Month to date heating degree days 0 1  
Since 1 July heating degree days 0 7  
Cooling Degree Days 11 7  
Month to date cooling degree days 11 7  
Year to date cooling degree days 1112 946  
Growing Degree Days 28 (Base 50)    
Moisture  
Dew Point 62 °F    
Average Humidity 58    
Maximum Humidity 79    
Minimum Humidity 37    
Precipitation  
Precipitation 0.17 in 0.11 in 1.77 in (1935)
Month to date precipitation 0.17 0.11  
Year to date precipitation 23.71 26.83  
Snow  
Snow 0.00 in 0.00 in - ()
Month to date snowfall 0.0 0.0  
Since 1 July snowfall 0.0 0.0  
Since 1 September snowfall 0.0 0.0  
Snow Depth 0.00 in    
Sea Level Pressure  
Sea Level Pressure 29.84 in    
Wind  
Wind Speed 12 mph (North)    
Max Wind Speed 29 mph    
Max Gust Speed 37 mph    
Visibility 10 miles    
Events Rain , Thunderstorm    
T = Trace of Precipitation, MM = Missing Value Source: NWS Daily Summary

Daily Weather History Graph

Daily Weather History Graph

Search for Another Location

Airport or City:

Trip Planner

Search our weather history database for the weather conditions in past years. The results will help you decide how hot, cold, wet, or windy it might be!

Date:

Astronomy

Sep. 01, 2013 Rise Set
Actual Time 6:41 AM CDT 7:47 PM CDT
Civil Twilight 6:12 AM CDT 8:15 PM CDT
Nautical Twilight 5:38 AM CDT 8:49 PM CDT
Astronomical Twilight 5:02 AM CDT 9:25 PM CDT
Moon 3:01 AM CDT (9/1) 5:26 PM CDT (9/1)
Length of Visible Light 14h 03m
Length of Day
13h 06m
Waning Crescent, 13% of the Moon is Illuminated
Sep 1
Waning Crescent
Sep 5
New
Sep 12
First Quarter
Sep 19
Full
Sep 26
Last Quarter

Hourly Weather History & Observations

Time (CDT) Temp. Heat Index Dew Point Humidity Pressure Visibility Wind Dir Wind Speed Gust Speed Precip Events Conditions
12:54 AM 78.1 °F - 70.0 °F 76% 29.78 in 10.0 mi SE 9.2 mph - N/A   Overcast
1:54 AM 77.0 °F - 69.1 °F 76% 29.77 in 10.0 mi ESE 6.9 mph - N/A   Mostly Cloudy
2:54 AM 77.0 °F - 69.1 °F 76% 29.78 in 10.0 mi SE 5.8 mph - N/A   Overcast
3:52 AM 75.2 °F - 69.8 °F 83% 29.83 in 10.0 mi ENE 4.6 mph - N/A Thunderstorm Thunderstorm
3:54 AM 75.9 °F - 69.1 °F 79% 29.80 in 10.0 mi ENE 4.6 mph - N/A Thunderstorm Thunderstorm
4:35 AM 73.0 °F - 69.1 °F 87% 29.89 in 6.0 mi NW 24.2 mph 36.8 mph 0.04 in Rain , Thunderstorm Thunderstorms and Rain
4:51 AM 71.6 °F - 66.2 °F 83% 29.91 in 5.0 mi NW 20.7 mph 34.5 mph 0.07 in Rain , Thunderstorm Thunderstorms and Rain
4:54 AM 71.1 °F - 66.9 °F 87% 29.88 in 5.0 mi NW 19.6 mph 29.9 mph 0.08 in Rain , Thunderstorm Thunderstorms and Rain
5:20 AM 72.0 °F - 63.0 °F 73% 29.87 in 6.0 mi North 16.1 mph - 0.07 in Rain Light Rain
5:43 AM 73.0 °F - 63.0 °F 71% 29.79 in 10.0 mi SSE 15.0 mph - 0.09 in Rain , Thunderstorm Light Thunderstorms and Rain
5:54 AM 70.0 °F - 64.0 °F 81% 29.76 in 10.0 mi South 17.3 mph - 0.09 in Rain , Thunderstorm Light Thunderstorms and Rain
5:58 AM 71.1 °F - 64.0 °F 78% 29.78 in 10.0 mi South 16.1 mph - 0.00 in Rain Light Rain
6:54 AM 71.1 °F - 64.0 °F 78% 29.76 in 10.0 mi SSW 9.2 mph - 0.00 in   Overcast
7:54 AM 71.1 °F - 64.9 °F 81% 29.83 in 10.0 mi NW 13.8 mph - N/A   Mostly Cloudy
8:54 AM 73.0 °F - 66.0 °F 79% 29.85 in 10.0 mi NW 15.0 mph - N/A   Partly Cloudy
9:54 AM 75.9 °F - 64.9 °F 69% 29.83 in 10.0 mi NW 18.4 mph - N/A   Partly Cloudy
10:54 AM 79.0 °F - 66.0 °F 64% 29.83 in 10.0 mi NW 15.0 mph - N/A   Scattered Clouds
11:54 AM 82.0 °F 82.1 °F 59.0 °F 45% 29.83 in 10.0 mi North 15.0 mph 24.2 mph N/A   Partly Cloudy
12:54 PM 84.0 °F 83.8 °F 59.0 °F 43% 29.83 in 10.0 mi NNW 12.7 mph - N/A   Clear
1:54 PM 84.9 °F 83.7 °F 55.9 °F 37% 29.84 in 10.0 mi North 13.8 mph 20.7 mph N/A   Clear
2:54 PM 84.9 °F 83.7 °F 55.9 °F 37% 29.84 in 10.0 mi North 12.7 mph 24.2 mph N/A   Partly Cloudy
3:54 PM 84.9 °F 83.6 °F 55.0 °F 36% 29.84 in 10.0 mi NW 16.1 mph - N/A   Partly Cloudy
4:54 PM 84.0 °F 83.0 °F 55.9 °F 38% 29.86 in 10.0 mi North 12.7 mph - N/A   Scattered Clouds
5:54 PM 82.9 °F 82.0 °F 55.0 °F 38% 29.86 in 10.0 mi NNW 13.8 mph - N/A   Scattered Clouds
6:54 PM 81.0 °F 81.1 °F 57.9 °F 45% 29.87 in 10.0 mi North 11.5 mph - N/A   Partly Cloudy
7:54 PM 77.0 °F - 59.0 °F 54% 29.88 in 10.0 mi North 9.2 mph - N/A   Partly Cloudy
8:54 PM 75.0 °F - 59.0 °F 57% 29.90 in 10.0 mi North 11.5 mph - N/A   Clear
9:54 PM 72.0 °F - 59.0 °F 64% 29.93 in 10.0 mi North 11.5 mph - N/A   Clear
10:54 PM 70.0 °F - 57.0 °F 63% 29.94 in 10.0 mi North 10.4 mph - N/A   Clear
11:54 PM 68.0 °F - 57.0 °F 68% 29.94 in 10.0 mi North 8.1 mph - N/A   Clear